Paynesville, MN

5:02 PM CDT on August 23, 2016 (GMT -0500)
Paynesville

Weather History for KPEX - October, 2012

Change the Weather History Date:

Thursday, October 11, 2012

  Actual Average (KLJF) Record (KLJF)
Temperature  
Mean Temperature 37 °F -  
Max Temperature 50 °F 61 °F 86 °F (2015)
Min Temperature 23 °F 39 °F 23 °F (1987)
Degree Days  
Heating Degree Days 28    
Moisture  
Dew Point 24 °F    
Average Humidity 57    
Maximum Humidity 83    
Minimum Humidity 27    
Precipitation  
Precipitation 0.00 in - - ()
Sea Level Pressure  
Sea Level Pressure 30.15 in    
Wind  
Wind Speed 7 mph (NNW)    
Max Wind Speed 15 mph    
Max Gust Speed 23 mph    
Visibility 10 miles    
Events      
Averages and records for this station are not official NWS values.
T = Trace of Precipitation, MM = Missing Value Source: NWS Daily Summary

Daily Weather History Graph

Daily Weather History Graph

Search for Another Location

Airport or City:

Trip Planner

Search our weather history database for the weather conditions in past years. The results will help you decide how hot, cold, wet, or windy it might be!

Date:

Astronomy

Oct. 11, 2012 Rise Set
Actual Time 7:30 AM CDT 6:39 PM CDT
Civil Twilight 7:00 AM CDT 7:09 PM CDT
Nautical Twilight 6:26 AM CDT 7:43 PM CDT
Astronomical Twilight 5:52 AM CDT 8:17 PM CDT
Moon 2:58 AM CDT (10/11) 4:26 PM CDT (10/11)
Length of Visible Light 12h 08m
Length of Day
11h 09m
Waning Crescent, 18% of the Moon is Illuminated
Oct 11
Waning Crescent
Oct 15
New
Oct 21
First Quarter
Oct 29
Full
Nov 6
Last Quarter

Hourly Weather History & Observations

Time (CDT) Temp. Windchill Dew Point Humidity Pressure Visibility Wind Dir Wind Speed Gust Speed Precip Events Conditions
12:14 AM 50.2 °F - 25.9 °F 39% 29.83 in 10.0 mi NNW 9.2 mph 20.7 mph N/A   Mostly Cloudy
12:54 AM 45.5 °F - 24.6 °F 44% 29.81 in 10.0 mi Calm Calm - N/A   Mostly Cloudy
1:13 AM 45.1 °F - 24.8 °F 45% 29.81 in 10.0 mi Calm Calm - N/A   Mostly Cloudy
1:54 AM 43.9 °F 41.3 °F 25.3 °F 48% 29.83 in 10.0 mi North 4.6 mph - N/A   Mostly Cloudy
2:13 AM 43.7 °F 39.7 °F 25.7 °F 49% 29.84 in 10.0 mi North 6.9 mph - N/A   Scattered Clouds
2:34 AM 43.0 °F 39.5 °F 25.7 °F 51% 29.85 in 10.0 mi North 5.8 mph - N/A   Mostly Cloudy
2:53 AM 42.8 °F 37.5 °F 25.9 °F 51% 29.87 in 10.0 mi North 9.2 mph - N/A   Mostly Cloudy
3:14 AM 42.3 °F 36.8 °F 26.6 °F 54% 29.88 in 10.0 mi North 9.2 mph - N/A   Overcast
3:33 AM 41.2 °F 34.5 °F 31.3 °F 68% 29.90 in 10.0 mi North 11.5 mph - N/A   Mostly Cloudy
3:54 AM 39.4 °F 32.3 °F 33.4 °F 79% 29.91 in 10.0 mi North 11.5 mph - N/A   Mostly Cloudy
4:14 AM 38.7 °F 30.5 °F 33.3 °F 81% 29.94 in 10.0 mi North 13.8 mph 23.0 mph N/A   Scattered Clouds
4:33 AM 38.5 °F 31.6 °F 33.1 °F 81% 29.94 in 10.0 mi North 10.4 mph - N/A   Scattered Clouds
4:54 AM 38.5 °F 32.7 °F 33.3 °F 81% 29.95 in 10.0 mi North 8.1 mph - N/A   Scattered Clouds
5:13 AM 38.5 °F 32.7 °F 33.6 °F 83% 29.97 in 10.0 mi North 8.1 mph - N/A   Mostly Cloudy
5:33 AM 38.5 °F 35.0 °F 33.8 °F 83% 29.98 in 10.0 mi North 4.6 mph - N/A   Overcast
5:53 AM 38.5 °F 32.1 °F 33.8 °F 83% 30.00 in 10.0 mi NNW 9.2 mph - N/A   Mostly Cloudy
6:14 AM 37.9 °F 32.7 °F 32.9 °F 82% 30.01 in 10.0 mi North 6.9 mph - N/A   Scattered Clouds
6:34 AM 38.1 °F 32.3 °F 32.9 °F 81% 30.02 in 10.0 mi North 8.1 mph - N/A   Mostly Cloudy
6:53 AM 38.1 °F 31.7 °F 32.7 °F 81% 30.04 in 10.0 mi North 9.2 mph - N/A   Mostly Cloudy
7:14 AM 37.9 °F 31.5 °F 32.0 °F 79% 30.04 in 10.0 mi North 9.2 mph - N/A   Mostly Cloudy
7:34 AM 37.6 °F 33.1 °F 32.0 °F 80% 30.08 in 10.0 mi NNW 5.8 mph - N/A   Clear
7:53 AM 37.0 °F 33.3 °F 32.0 °F 82% 30.09 in 10.0 mi NNW 4.6 mph - N/A   Clear
8:13 AM 37.0 °F 33.3 °F 32.0 °F 82% 30.10 in 10.0 mi NNW 4.6 mph - N/A   Clear
8:34 AM 36.9 °F 32.2 °F 32.0 °F 83% 30.11 in 10.0 mi NNW 5.8 mph - N/A   Clear
8:54 AM 37.6 °F 31.0 °F 32.0 °F 80% 30.13 in 10.0 mi NNW 9.2 mph - N/A   Clear
9:13 AM 38.1 °F 31.2 °F 32.0 °F 79% 30.14 in 10.0 mi NNW 10.4 mph 17.3 mph N/A   Scattered Clouds
9:33 AM 37.9 °F 31.5 °F 31.6 °F 78% 30.15 in 10.0 mi NNW 9.2 mph - N/A   Scattered Clouds
9:54 AM 38.3 °F 31.9 °F 30.4 °F 73% 30.16 in 10.0 mi North 9.2 mph - N/A   Clear
10:13 AM 39.7 °F 33.2 °F 27.7 °F 62% 30.17 in 10.0 mi North 10.4 mph 17.3 mph N/A   Clear
10:33 AM 40.8 °F 34.1 °F 26.4 °F 57% 30.18 in 10.0 mi NNW 11.5 mph 18.4 mph N/A   Clear
10:53 AM 41.5 °F 35.4 °F 25.5 °F 53% 30.19 in 10.0 mi NNW 10.4 mph 16.1 mph N/A   Clear
11:13 AM 42.8 °F 36.6 °F 23.0 °F 46% 30.19 in 10.0 mi NNW 11.5 mph 21.9 mph N/A   Clear
11:34 AM 42.8 °F 37.0 °F 21.0 °F 42% 30.20 in 10.0 mi North 10.4 mph - N/A   Clear
11:54 AM 42.8 °F 35.8 °F 19.9 °F 40% 30.21 in 10.0 mi North 13.8 mph 21.9 mph N/A   Clear
12:13 PM 42.3 °F 35.5 °F 19.6 °F 40% 30.21 in 10.0 mi NNW 12.7 mph - N/A   Clear
12:54 PM 43.7 °F 38.1 °F 17.2 °F 35% 30.22 in 10.0 mi NNW 10.4 mph 17.3 mph N/A   Clear
1:13 PM 44.4 °F 37.9 °F 17.1 °F 33% 30.21 in 10.0 mi North 13.8 mph 20.7 mph N/A   Clear
1:34 PM 43.9 °F 36.8 °F 16.5 °F 33% 30.22 in 10.0 mi NNW 15.0 mph 18.4 mph N/A   Clear
1:54 PM 43.2 °F 37.9 °F 17.4 °F 36% 30.22 in 10.0 mi NNW 9.2 mph 17.3 mph N/A   Clear
2:13 PM 46.0 °F 39.9 °F 16.7 °F 31% 30.22 in 10.0 mi NNW 13.8 mph 18.4 mph N/A   Clear
2:34 PM 46.2 °F 40.8 °F 16.2 °F 30% 30.23 in 10.0 mi NW 11.5 mph 18.4 mph N/A   Clear
2:53 PM 46.2 °F 40.8 °F 16.5 °F 31% 30.23 in 10.0 mi NW 11.5 mph 20.7 mph N/A   Clear
3:13 PM 46.2 °F 41.2 °F 15.1 °F 29% 30.24 in 10.0 mi NNW 10.4 mph 20.7 mph N/A   Clear
3:53 PM 46.8 °F - 14.4 °F 27% 30.25 in 10.0 mi NW 15.0 mph 19.6 mph N/A   Clear
4:13 PM 45.7 °F 39.8 °F 16.7 °F 31% 30.25 in 10.0 mi NW 12.7 mph 17.3 mph N/A   Clear
4:54 PM 43.9 °F 37.5 °F 17.4 °F 35% 30.26 in 10.0 mi NW 12.7 mph 16.1 mph N/A   Clear
5:33 PM 43.7 °F 38.1 °F 17.6 °F 35% 30.27 in 10.0 mi NW 10.4 mph 17.3 mph N/A   Clear
5:54 PM 43.0 °F 36.8 °F 17.6 °F 36% 30.28 in 10.0 mi NW 11.5 mph 16.1 mph N/A   Clear
6:33 PM 41.0 °F 36.4 °F 18.7 °F 41% 30.29 in 10.0 mi NW 6.9 mph - N/A   Clear
6:53 PM 39.7 °F 34.9 °F 18.3 °F 42% 30.30 in 10.0 mi NW 6.9 mph - N/A   Clear
7:13 PM 38.5 °F 34.1 °F 18.5 °F 45% 30.30 in 10.0 mi NW 5.8 mph - N/A   Clear
7:34 PM 37.4 °F 32.8 °F 18.5 °F 46% 30.31 in 10.0 mi NW 5.8 mph - N/A   Clear
7:53 PM 36.5 °F 32.7 °F 18.7 °F 49% 30.32 in 10.0 mi NW 4.6 mph - N/A   Clear
8:14 PM 35.6 °F - 19.0 °F 51% 30.33 in 10.0 mi Calm Calm - N/A   Clear
8:34 PM 34.9 °F - 19.2 °F 53% 30.33 in 10.0 mi Calm Calm - N/A   Clear
8:53 PM 34.5 °F - 18.9 °F 53% 30.34 in 10.0 mi Calm Calm - N/A   Clear
9:14 PM 34.2 °F 31.2 °F 18.9 °F 54% 30.35 in 10.0 mi NW 3.5 mph - N/A   Clear
9:34 PM 34.2 °F 30.0 °F 18.9 °F 54% 30.36 in 10.0 mi NNW 4.6 mph - N/A   Clear
9:53 PM 33.4 °F - 18.5 °F 54% 30.36 in 10.0 mi Calm Calm - N/A   Clear
10:14 PM 30.2 °F - 17.1 °F 58% 30.37 in 10.0 mi Calm Calm - N/A   Clear
10:34 PM 27.9 °F - 16.9 °F 63% 30.38 in 10.0 mi Calm Calm - N/A   Clear
10:53 PM 25.7 °F - 15.6 °F 66% 30.38 in 10.0 mi Calm Calm - N/A   Clear
11:13 PM 24.6 °F - 15.4 °F 68% 30.39 in 10.0 mi Calm Calm - N/A   Clear
11:34 PM 24.1 °F 19.7 °F 15.3 °F 69% 30.40 in 10.0 mi WSW 3.5 mph - N/A   Clear
11:53 PM 23.2 °F 17.2 °F 15.6 °F 73% 30.41 in 10.0 mi WSW 4.6 mph - N/A   Clear